Showing default

KUIPER-00079, 64826

Orbit data source: Space-Track

KUIPER-00079, 64826 is a payload satellite owned by Kuiper Systems (US) in LEO that was launched on Wed, 16 Jul 2025 UTC via an FALCON 9 launch vehicle from the Air Force Eastern Test Range (AFETR). Payload-class satellites include a variety of spacecraft equipped with specific instruments for various scientific and technological missions. These include communications satellites like Starlink; space stations such as the ISS; scientific satellites like the Hubble; Earth observation satellites from companies like Planet Labs, Umbra, and HawkEye 360; GPS; miniature CubeSats for education and research; and military/defense satellites.

Loading next visibility...
Identifier
64826, 2025-151L
Orbit
LEO
Country
Flag of USUS
Related business
Manufacturer
Kuiper Systems
Mission
Operational Commercial Communications
Bus & Motor
KUIPER, Unknown motor
Mass
~490 kg wet, ~490 kg dry
Launch date (UTC)
2025-07-16 (11 months ago)
Launch vehicle
FALCON 9
Launch site
Air Force Eastern Test Range (AFETR)
Object type
Payload
Rocket body
Debris
Shape & HBR
Box + 2 Pan, 3.4 m
Radar Cross Section
2.326 m², Large (>1 m²)

Expand to show TLE details & history
Last TLE update: 7 hours ago

TLE from 7 hours ago
0 KUIPER-00079
1 64826U 25151L   26166.88091671  .00000984  00000-0  15806-3 0  9995
2 64826  51.8989 226.3562 0000531  93.7337 266.3687 14.79932030 51041
Epoch: 2026-06-15T21:08Z
TLE epoch observation values (Epoch: 2026-06-15T21:08:31.203Z)
Latitude
0.00004°
Longitude
5.06527°
Altitude
630.309 km
Speed
7.544 km/s
True Right ascension
15h 05m 25s
True Declination
0° 00' 00"
Sunlit
Object was in full shadow at epoch
Visualization orbit readout
Latitude
Unknown
Longitude
Unknown
Altitude
Unknown
Speed
Unknown
Apparent Right ascension
Unknown
Apparent Declination
Unknown
Sunlit
N/A
Visualization observer readout
Local Sidereal Time
14:43:52
Azimuth
Unknown
Elevation
Unknown
Doppler factor
Unknown
Orbital elements
Apogee altitude
630.362 km
Perigee altitude
629.618 km
Semi-major axis
7,008.127 km
Eccentricity
0.00005
Inclination
51.8989°
RAAN
226.3562°
Arg. of periapsis
93.7337°
True anomaly
266.36263°
Mean anomaly
266.3687°
Eccentric anomaly
266.36566°
Mean motion
3.69948 °/min
Orbital period
97.31 mins
BSTAR
0.00015806
Loading maneuver chart data...
Computing Atmospheric mass density...
Loading historical data...
Loading historical data...
Loading historical data...
Loading historical data...
Loading historical data...
Loading historical data...
Loading historical data...

Documentation

Showing up to 5 results
|